Wenatchee, WA

4:17 PM PST on November 18, 2017 (GMT -0800)
Pangborn Memorial

Weather History for KEAT - May, 2014

Change the Weather History Date:

Sunday, May 25, 2014

  Actual Average Record
Temperature  
Mean Temperature 64 °F 55 °F  
Max Temperature 74 °F 67 °F 93 °F (1983)
Min Temperature 54 °F 44 °F 39 °F (1984)
Degree Days  
Heating Degree Days 1 10  
Month to date heating degree days 66 317  
Since 1 July heating degree days 5610 6896  
Cooling Degree Days 0 0  
Month to date cooling degree days 54 0  
Year to date cooling degree days 54 0  
Growing Degree Days 14 (Base 50)    
Moisture  
Dew Point 38 °F    
Average Humidity 38    
Maximum Humidity 51    
Minimum Humidity 25    
Precipitation  
Precipitation T in 0.06 in 0.49 in (1981)
Month to date precipitation 0.18 1.33  
Year to date precipitation 2.31 7.60  
Snow  
Snow 0.00 in 0.00 in - ()
Month to date snowfall 0.5  
Since 1 July snowfall 54.1  
Snow Depth -    
Sea Level Pressure  
Sea Level Pressure 29.95 in    
Wind  
Wind Speed 9 mph (NW)    
Max Wind Speed 24 mph    
Max Gust Speed 28 mph    
Visibility 10 miles    
Events Rain    
T = Trace of Precipitation, MM = Missing Value Source: NWS Daily Summary

Daily Weather History Graph

Daily Weather History Graph

Search for Another Location

Airport or City:

Trip Planner

Search our weather history database for the weather conditions in past years. The results will help you decide how hot, cold, wet, or windy it might be!

Date:

Astronomy

May. 25, 2014 Rise Set
Actual Time 5:13 AM PDT 8:42 PM PDT
Civil Twilight 4:35 AM PDT 9:21 PM PDT
Nautical Twilight 3:44 AM PDT 10:11 PM PDT
Astronomical Twilight 2:38 AM PDT 11:19 PM PDT
Moon 3:35 AM PDT (5/25) 5:36 PM PDT (5/25)
Length of Visible Light 16h 45m
Length of Day
15h 29m
Waning Crescent, 10% of the Moon is Illuminated
May 25
Waning Crescent
May 28
New
Jun 5
First Quarter
Jun 12
Full
Jun 19
Last Quarter

Hourly Weather History & Observations

Time (PDT) Temp. Dew Point Humidity Pressure Visibility Wind Dir Wind Speed Gust Speed Precip Events Conditions
12:55 AM 60.1 °F 37.0 °F 42% 30.00 in 10.0 mi WNW 12.7 mph - N/A   Clear
1:55 AM 59.0 °F 37.9 °F 46% 30.01 in 10.0 mi WNW 17.3 mph - N/A   Clear
2:55 AM 57.9 °F 37.9 °F 47% 30.00 in 10.0 mi WNW 9.2 mph - N/A   Clear
3:55 AM 55.9 °F 37.9 °F 51% 30.01 in 10.0 mi NW 5.8 mph - N/A   Clear
4:55 AM 55.9 °F 37.9 °F 51% 30.01 in 10.0 mi NW 6.9 mph - N/A   Clear
5:55 AM 55.9 °F 37.9 °F 51% 30.01 in 10.0 mi NW 6.9 mph - N/A   Clear
6:55 AM 55.9 °F 37.9 °F 51% 30.00 in 10.0 mi WNW 4.6 mph - N/A   Clear
8:55 AM 57.9 °F 39.9 °F 51% 30.01 in 10.0 mi Calm Calm - N/A   Clear
9:55 AM 61.0 °F 39.9 °F 46% 30.00 in 10.0 mi Variable 3.5 mph - N/A   Clear
10:55 AM 64.9 °F 37.0 °F 36% 29.98 in 10.0 mi Calm Calm - N/A   Clear
11:55 AM 66.9 °F 34.0 °F 30% 29.96 in 10.0 mi Calm Calm - N/A   Overcast
12:55 PM 68.0 °F 35.1 °F 30% 29.94 in 10.0 mi SE 5.8 mph - N/A   Mostly Cloudy
1:55 PM 71.1 °F 35.1 °F 27% 29.91 in 10.0 mi WNW 5.8 mph - N/A   Scattered Clouds
2:55 PM 73.0 °F 36.0 °F 26% 29.89 in 10.0 mi North - - N/A   Scattered Clouds
3:55 PM 72.0 °F 37.0 °F 28% 29.88 in 10.0 mi WNW 8.1 mph - N/A   Scattered Clouds
4:55 PM 70.0 °F 39.0 °F 32% 29.88 in 10.0 mi NW 23.0 mph - 0.00 in   Overcast
5:55 PM 66.9 °F 39.9 °F 37% 29.89 in 10.0 mi WNW 20.7 mph - 0.00 in Rain Light Rain
6:55 PM 64.9 °F 39.9 °F 40% 29.91 in 10.0 mi WNW 18.4 mph - 0.00 in   Mostly Cloudy
7:55 PM 64.0 °F 39.9 °F 41% 29.90 in 10.0 mi NW 18.4 mph - 0.00 in   Overcast
8:55 PM 61.0 °F 39.9 °F 46% 29.92 in 10.0 mi WNW 13.8 mph - N/A   Scattered Clouds
9:55 PM 57.9 °F 39.9 °F 51% 29.93 in 10.0 mi NNW 6.9 mph - N/A   Clear
10:55 PM 57.9 °F 39.9 °F 51% 29.93 in 10.0 mi NW 9.2 mph - N/A   Mostly Cloudy
11:55 PM 57.0 °F 39.0 °F 51% 29.94 in 10.0 mi Calm Calm - N/A   Mostly Cloudy